This is the latest recevied weather packets stored in our database for station/object KC5TIL. If no packets are shown the sender has not sent any weather packets the latest 10 day(s).
| Time | Temp. | Humidity | Pressure | Rain* | Wind** | Luminosity | Snow |
|---|---|---|---|---|---|---|---|
| 1777815244 | 19.44° C | 63% | 1023.1 hPa | 0 mm | - | 186 W/m² | - |
| 1777814939 | 18.89° C | 63% | 1023.1 hPa | 0 mm | - | 167 W/m² | - |
| 1777814636 | 18.33° C | 65% | 1023.2 hPa | 0 mm | - | 151 W/m² | - |
| 1777814333 | 18.33° C | 65% | 1022.9 hPa | 0 mm | - | 141 W/m² | - |
| 1777814030 | 17.78° C | 66% | 1023.3 hPa | 0 mm | - | 130 W/m² | - |
| 1777813727 | 17.22° C | 67% | 1023.1 hPa | 0 mm | - | 112 W/m² | - |
| 1777813425 | 17.22° C | 67% | 1023.1 hPa | 0 mm | - | 104 W/m² | - |
| 1777813122 | 16.67° C | 68% | 1023.1 hPa | 0 mm | - | 62 W/m² | - |
| 1777812820 | 16.67° C | 69% | 1023 hPa | 0 mm | - | 53 W/m² | - |
| 1777812516 | 16.67° C | 69% | 1022.9 hPa | 0 mm | - | 49 W/m² | - |
| 1777812214 | 16.67° C | 70% | 1023.1 hPa | 0 mm | - | 45 W/m² | - |
| 1777811912 | 15.56° C | 73% | 1023 hPa | 0 mm | - | 42 W/m² | - |
| 1777811611 | 15.56° C | 74% | 1023 hPa | 0 mm | - | 38 W/m² | - |
| 1777811305 | 15° C | 75% | 1023.1 hPa | 0 mm | - | 35 W/m² | - |
| 1777811003 | 14.44° C | 76% | 1022.8 hPa | 0 mm | - | 31 W/m² | - |
| 1777810700 | 13.89° C | 79% | 1022.7 hPa | 0 mm | - | 26 W/m² | - |
| 1777810397 | 12.78° C | 81% | 1022.8 hPa | 0 mm | - | 22 W/m² | - |
| 1777810092 | 12.78° C | 83% | 1022.6 hPa | 0 mm | - | 17 W/m² | - |
| 1777809790 | 12.22° C | 83% | 1022.6 hPa | 0 mm | - | 14 W/m² | - |
| 1777809488 | 12.22° C | 84% | 1022.6 hPa | 0 mm | - | 11 W/m² | - |
| 1777809185 | 12.22° C | 84% | 1022.6 hPa | 0 mm | - | 8 W/m² | - |
| 1777808883 | 12.22° C | 84% | 1022.5 hPa | 0 mm | - | 4 W/m² | - |
| 1777808579 | 12.22° C | 83% | 1022.3 hPa | 0 mm | - | 3 W/m² | - |
| 1777808276 | 12.78° C | 82% | 1022.4 hPa | 0 mm | - | 0 W/m² | - |
| 1777807975 | 12.22° C | 83% | 1022.4 hPa | 0 mm | - | 0 W/m² | - |
* Rain latest hour (hover to see other rain measurements)
** Current wind speed in m/s (hover to see current wind gust speed)